Location: Seattle
(47.6064°N, 122.3308°W)
Time: 11:37:20
(UTC-07:00)

Explorer 7 - Pass Details

Date: 07 August 2021
Orbit: 484 x 676 km, 50.3° (Epoch: 22 September)

Event Time Altitude Azimuth Distance (km) Brightness Sun altitude
Exits shadow 03:25:28 25° 137° (SE) 1,010 8.0 -19.8°
Drops below altitude 10° 03:28:27 10° 85° (E) 1,682 9.8 -19.5°
Sets 03:30:54 0° 73° (ENE) 2,586 11.1 -19.3°
